Temp
71 70 69 70 69 69 69 68 67 67 67 67 67 67 66 65 65 63 63 65 64 64 64 64 64 65 67 68 68 69 68 68 63 69 72 71 71 72 75 77 77 77 79
70 69 68 68 68 67 65 65 65 64 64 64 64 64 64 64 63 62 62 62 62 61 62 62 61 65 62 64 65 63 66 67 65 61 68 70 68 70 71 71 74 78 78
70 70 67 65 65 63 62 62 62 62 62 62 62 61 62 62 61 61 61 60 60 60 60 59 58 59 58 61 61 62 64 64 65 63 63 68 69 70 69 70 70 72 75
68 66 63 61 60 60 60 59 59 59 59 59 60 59 60 60 59 59 59 58 57 58 57 57 56 56 56 57 58 58 59 59 60 61 62 63 65 66 67 66 66 71 72
63 62 59 59 59 58 58 57 57 57 57 57 56 56 56 56 58 54 53 53 53 54 54 55 56 55 52 53 54 56 55 54 56 58 59 61 62 63 61 65 65 67 69
59 58 58 57 58 56 55 55 54 54 54 53 53 53 52 54 47 45 47 51 52 52 52 54 55 53 53 50 49 49 50 50 50 50 51 52 55 58 61 61 62 62 61
57 56 56 55 55 54 53 52 52 50 50 50 50 50 50 51 45 43 44 48 48 49 49 49 50 56 53 53 50 49 49 48 48 49 47 49 49 53 54 53 54 55 57
54 54 53 53 52 52 50 50 48 49 48 48 48 49 49 50 44 43 43 48 48 48 48 48 48 48 50 48 47 47 49 51 51 50 49 50 52 53 51 51 50 49 51
50 50 50 49 48 48 47 46 47 46 46 45 47 48 47 46 44 42 43 49 48 47 49 49 48 47 45 43 44 43 45 46 50 48 47 45 45 44 46 46 44 42 42
46 47 47 47 46 45 45 45 46 46 45 48 48 47 46 49 45 42 43 45 44 44 45 46 46 46 43 42 43 43 41 44 46 47 48 47 47 50 46 47 47 43 45
44 45 45 45 43 44 44 45 45 44 41 44 46 49 50 49 48 41 41 42 42 41 42 44 48 44 42 41 41 44 42 44 44 44 44 45 47 48 51 54 54 50 47
42 41 41 41 42 43 42 43 44 41 42 44 45 47 48 47 44 42 40 40 41 41 41 43 44 42 40 40 41 41 40 41 42 42 42 43 44 46 49 52 53 53 55
38 39 40 40 41 41 41 40 40 41 41 43 43 42 41 44 43 42 41 40 41 41 42 42 41 40 40 41 41 41 40 43 42 41 41 43 45 47 48 50 51 51 51
38 39 40 39 39 40 41 41 39 39 38 38 37 37 39 41 43 46 43 43 42 42 42 41 41 40 40 41 41 42 43 43 42 41 40 42 44 44 45 49 46 46 45
38 37 36 38 39 38 39 39 38 40 39 36 37 38 36 37 41 39 38 38 40 40 38 40 41 42 41 41 41 41 42 42 41 41 40 40 41 42 43 45 44 45 43
34 35 36 36 38 39 38 37 40 39 38 38 38 37 38 38 37 37 37 37 37 37 39 41 42 42 41 42 41 41 41 41 41 41 41 41 41 42 43 45 45 44 43
34 34 36 36 36 37 36 36 35 39 39 38 37 37 37 36 36 36 37 37 37 39 42 42 42 42 43 44 43 43 42 43 43 43 42 43 44 45 44 44 45 45 44
35 36 35 35 37 36 37 37 36 36 37 38 38 37 37 36 36 36 37 40 45 46 42 40 40 41 42 43 44 46 45 45 43 43 43 44 45 45 47 47 48 47 47
35 35 36 37 38 38 38 37 37 35 36 35 38 38 39 36 36 37 37 38 40 41 38 38 39 40 41 42 44 47 49 47 45 44 44 45 46 47 48 50 49 41 45
36 34 34 36 38 38 39 36 37 34 34 34 34 34 37 36 35 35 36 38 42 40 37 37 38 39 41 42 43 46 45 46 49 48 46 45 47 49 50 54 50 50 50
36 37 33 37 36 36 35 36 37 34 34 34 34 35 32 33 33 34 34 38 39 38 36 36 37 38 40 42 43 44 42 43 45 50 52 52 51 51 52 57 54 52 51
36 37 38 37 37 35 35 36 36 35 34 34 34 36 33 35 34 34 35 36 38 39 36 36 37 38 40 41 41 42 40 40 41 44 50 53 53 52 52 53 53 52 49
37 38 38 37 35 34 35 36 36 35 36 33 34 36 34 34 33 33 34 36 37 38 37 37 38 39 40 40 41 41 38 38 38 40 45 55 54 54 53 53 52 50 49
38 37 36 35 34 34 34 34 34 34 34 34 36 34 33 33 32 32 33 34 35 37 38 39 41 41 40 39 40 39 38 37 38 42 47 57 55 55 56 53 51 49 47
37 36 35 32 32 33 34 34 34 34 34 33 33 34 34 34 33 34 33 33 35 36 37 39 40 40 41 39 38 36 35 34 36 35 45 58 59 59 58 56 52 48 47
37 36 34 33 32 33 33 32 32 32 32 33 33 33 33 34 33 33 33 35 33 34 36 37 38 39 40 39 36 33 34 33 35 34 41 56 59 60 60 58 53 56 50
MSLP
1014.87 1015.37 1015.60 1015.78 1015.98 1016.08 1016.07 1016.30 1016.36 1016.24 1016.25 1016.00 1015.84 1015.60 1015.44 1015.28 1015.19 1015.07 1014.81 1014.36 1014.07 1013.78 1013.42 1012.93 1012.58 1012.38 1011.81 1011.30 1010.98 1010.57 1010.21 1009.95 1009.08 1008.15 1008.31 1008.51 1008.66 1008.47 1007.99 1007.76 1007.83 1007.73 1007.42
1015.44 1015.79 1016.19 1016.43 1016.43 1016.44 1016.39 1016.60 1016.70 1016.73 1016.68 1016.48 1016.30 1015.96 1015.64 1015.46 1015.30 1015.02 1014.65 1014.31 1013.83 1013.22 1012.70 1012.50 1012.21 1011.97 1011.68 1011.33 1010.96 1010.60 1010.13 1009.72 1009.16 1008.16 1008.20 1008.06 1008.29 1008.18 1007.88 1007.74 1007.39 1006.89 1006.86
1015.84 1016.08 1016.55 1016.77 1016.87 1017.02 1016.93 1017.10 1017.13 1017.06 1016.97 1016.73 1016.58 1016.21 1015.78 1015.47 1015.17 1014.87 1014.57 1014.14 1013.67 1013.00 1012.64 1012.45 1012.23 1011.97 1011.47 1011.10 1010.74 1010.36 1009.94 1009.60 1009.12 1008.43 1007.88 1007.84 1007.68 1007.70 1007.33 1007.18 1006.97 1006.79 1006.66
1016.35 1016.57 1017.06 1017.41 1017.70 1017.72 1017.54 1017.53 1017.60 1017.58 1017.31 1016.88 1016.61 1016.36 1015.91 1015.52 1015.23 1014.85 1014.44 1014.02 1013.60 1013.13 1012.85 1012.51 1012.10 1011.75 1011.37 1011.08 1010.76 1010.41 1010.08 1009.70 1009.13 1008.48 1007.77 1007.41 1007.30 1007.23 1007.15 1006.87 1006.46 1006.26 1005.88
1016.86 1017.36 1017.91 1018.25 1018.41 1018.31 1018.01 1017.94 1017.90 1017.79 1017.46 1017.15 1016.76 1016.36 1015.90 1015.58 1015.04 1014.94 1014.71 1014.12 1013.61 1013.14 1012.70 1012.29 1011.86 1011.61 1011.59 1011.44 1011.05 1010.31 1010.03 1009.74 1009.14 1008.23 1007.47 1007.05 1006.76 1006.66 1006.54 1006.42 1006.03 1005.78 1005.45
1017.76 1018.14 1018.63 1018.88 1018.82 1018.66 1018.36 1018.35 1018.24 1017.87 1017.55 1017.13 1016.67 1016.26 1015.77 1015.43 1015.31 1015.41 1015.14 1014.26 1013.77 1013.23 1012.55 1012.05 1011.73 1011.45 1011.05 1011.04 1011.01 1010.90 1010.68 1010.04 1009.41 1008.87 1008.28 1007.61 1007.05 1006.78 1006.61 1006.45 1006.09 1005.71 1005.09
1018.53 1018.83 1019.19 1019.37 1019.13 1018.90 1018.71 1018.56 1018.16 1017.79 1017.41 1016.90 1016.40 1016.04 1015.66 1015.41 1015.33 1015.27 1014.95 1014.39 1013.83 1013.22 1012.75 1012.27 1011.73 1010.99 1010.89 1010.58 1010.40 1010.32 1010.04 1009.82 1009.59 1009.15 1008.39 1007.94 1007.64 1007.43 1007.24 1006.98 1006.80 1006.42 1005.85
1019.33 1019.68 1019.71 1019.60 1019.28 1019.03 1018.90 1018.44 1018.07 1017.64 1017.23 1016.69 1016.29 1015.99 1015.63 1015.17 1015.23 1015.02 1014.79 1014.14 1013.51 1012.99 1012.59 1012.18 1011.69 1011.21 1010.74 1010.66 1010.35 1009.83 1009.35 1008.93 1008.61 1008.37 1007.86 1007.54 1007.40 1007.33 1007.31 1007.15 1007.09 1007.01 1006.83
1019.99 1020.06 1020.02 1019.93 1019.73 1019.30 1018.72 1018.22 1017.95 1017.51 1017.08 1016.86 1016.50 1015.85 1015.48 1015.17 1014.96 1014.88 1014.66 1013.70 1013.12 1012.82 1012.29 1011.78 1011.38 1010.89 1010.43 1010.21 1010.04 1009.46 1008.92 1008.46 1008.07 1007.78 1007.46 1007.24 1007.14 1007.09 1007.27 1007.25 1007.12 1007.11 1006.62
1020.61 1020.38 1020.52 1020.48 1019.93 1019.11 1018.75 1018.36 1018.00 1017.68 1017.21 1016.67 1016.05 1015.71 1015.18 1014.68 1014.55 1014.74 1014.52 1013.90 1013.24 1012.75 1012.21 1011.49 1010.80 1010.37 1010.00 1009.76 1009.47 1008.88 1008.28 1007.90 1007.62 1007.19 1006.84 1006.62 1006.49 1006.27 1006.37 1006.63 1006.62 1006.53 1006.22
1021.26 1021.22 1020.89 1020.30 1019.74 1019.45 1018.99 1018.48 1018.04 1017.62 1017.33 1016.57 1015.73 1015.13 1014.69 1014.52 1014.41 1014.57 1014.39 1013.89 1013.24 1012.63 1011.86 1010.91 1010.04 1009.66 1009.43 1009.16 1008.85 1008.21 1007.69 1007.48 1007.09 1006.84 1006.50 1006.19 1005.92 1005.71 1005.49 1005.27 1005.32 1005.61 1005.37
1021.81 1021.30 1020.76 1020.45 1020.12 1019.51 1019.02 1018.47 1017.88 1017.56 1016.93 1016.20 1015.61 1014.88 1014.66 1014.56 1014.48 1014.28 1014.03 1013.61 1013.08 1012.43 1011.43 1010.55 1009.78 1009.17 1008.71 1008.28 1007.89 1007.34 1007.03 1006.85 1006.42 1006.04 1005.75 1005.39 1005.15 1004.99 1004.82 1004.71 1004.63 1004.67 1004.50
1021.83 1021.28 1020.87 1020.39 1019.76 1019.33 1018.76 1018.33 1017.91 1017.48 1016.98 1016.27 1015.79 1015.44 1015.03 1014.64 1014.32 1013.94 1013.44 1012.99 1012.44 1011.80 1010.98 1010.10 1009.39 1008.62 1007.96 1007.28 1006.58 1006.28 1006.11 1005.71 1005.41 1005.16 1004.83 1004.55 1004.43 1004.34 1004.26 1004.12 1004.03 1004.05 1004.01
1021.79 1021.20 1020.67 1020.17 1019.76 1019.26 1018.84 1018.44 1018.14 1017.72 1017.23 1016.77 1016.32 1015.78 1015.20 1014.67 1014.10 1013.48 1013.13 1012.47 1011.82 1011.09 1010.25 1009.43 1008.63 1007.92 1007.21 1006.57 1005.93 1005.43 1005.08 1004.78 1004.60 1004.36 1004.16 1003.99 1003.92 1003.75 1003.47 1003.29 1003.28 1003.32 1003.17
1021.81 1021.38 1020.90 1020.34 1019.79 1019.38 1019.08 1018.74 1018.34 1017.89 1017.59 1017.19 1016.60 1016.01 1015.42 1014.76 1014.10 1014.00 1013.45 1012.57 1011.82 1010.95 1010.04 1008.94 1007.77 1006.91 1006.14 1005.56 1005.03 1004.61 1004.30 1004.03 1003.78 1003.56 1003.41 1003.20 1003.01 1002.89 1002.59 1002.53 1002.49 1002.42 1002.34
1021.98 1021.41 1020.92 1020.44 1019.95 1019.49 1019.13 1018.67 1018.24 1017.96 1017.53 1017.12 1016.73 1016.24 1015.54 1014.95 1014.36 1013.74 1012.89 1012.05 1011.22 1010.24 1009.48 1008.42 1007.33 1006.49 1005.58 1004.81 1004.23 1003.72 1003.34 1003.04 1002.80 1002.68 1002.47 1002.25 1002.02 1001.81 1001.49 1001.35 1001.47 1001.51 1001.47
1022.21 1021.62 1021.11 1020.74 1020.23 1019.70 1019.10 1018.47 1017.98 1017.40 1017.04 1016.80 1016.34 1015.76 1015.30 1014.83 1014.14 1013.37 1012.46 1011.51 1010.55 1009.73 1009.16 1008.26 1007.36 1006.34 1005.33 1004.36 1003.47 1002.83 1002.22 1001.92 1001.73 1001.54 1001.33 1001.14 1000.95 1000.63 1000.48 1000.36 1000.26 1000.30 1000.37
1022.34 1021.90 1021.32 1020.78 1020.14 1019.59 1018.94 1018.54 1018.07 1017.26 1016.56 1015.98 1015.68 1015.47 1015.05 1014.55 1013.84 1013.11 1012.30 1010.97 1010.02 1009.21 1009.15 1008.49 1007.52 1006.52 1005.45 1004.38 1003.26 1002.16 1001.28 1000.80 1000.63 1000.47 1000.26 1000.12 1000.00 999.82 999.44 999.29 999.09 999.14 999.21
1022.21 1021.85 1021.34 1020.66 1020.04 1019.51 1019.10 1018.75 1018.23 1017.74 1017.01 1016.38 1015.69 1015.29 1014.82 1014.44 1013.74 1013.18 1012.49 1011.71 1010.80 1009.92 1009.46 1008.67 1007.81 1006.85 1005.72 1004.52 1003.27 1002.03 1000.98 1000.01 999.63 999.43 999.30 999.13 999.00 998.93 998.65 998.49 998.35 998.29 998.11
1022.29 1022.04 1021.61 1020.86 1020.19 1019.72 1019.35 1018.99 1018.48 1018.05 1017.31 1016.70 1016.21 1015.87 1015.25 1014.43 1013.69 1013.11 1012.56 1011.89 1011.07 1010.52 1009.91 1009.12 1008.11 1007.16 1005.97 1004.69 1003.44 1002.22 1001.21 1000.08 998.99 998.37 998.21 998.01 998.02 998.01 997.81 997.65 997.94 998.02 997.68
1022.33 1021.88 1021.79 1021.04 1020.63 1020.34 1019.89 1019.43 1018.90 1018.31 1017.69 1017.28 1016.92 1016.56 1016.19 1015.37 1014.66 1013.93 1013.11 1012.28 1011.57 1010.89 1010.31 1009.50 1008.50 1007.39 1006.33 1005.03 1003.78 1002.56 1001.67 1000.57 999.55 998.30 997.16 996.84 996.89 997.01 997.32 997.17 997.77 998.14 998.24
1022.52 1022.07 1021.63 1021.27 1020.96 1020.67 1020.33 1019.78 1019.22 1018.70 1018.23 1017.82 1017.32 1016.70 1016.27 1015.60 1015.07 1014.33 1013.50 1012.70 1011.98 1011.25 1010.73 1009.88 1008.80 1007.87 1006.87 1005.73 1004.35 1003.16 1002.36 1001.28 1000.22 999.22 997.76 996.90 996.31 996.58 997.31 997.65 997.98 998.33 998.79
1022.74 1022.35 1021.98 1021.71 1021.52 1021.17 1020.72 1020.19 1019.69 1019.16 1018.62 1018.39 1017.74 1017.06 1016.51 1016.00 1015.49 1014.76 1013.92 1013.07 1012.26 1011.40 1010.70 1009.89 1008.89 1007.94 1007.20 1006.14 1005.03 1004.26 1003.13 1002.16 1001.05 1000.04 998.55 997.43 997.10 997.18 997.58 997.80 998.23 998.63 999.12
1023.13 1022.92 1022.64 1022.42 1022.13 1021.66 1021.27 1020.78 1020.32 1019.76 1019.31 1018.76 1018.10 1017.69 1017.17 1016.56 1015.95 1015.26 1014.39 1013.52 1012.61 1011.68 1010.89 1010.05 1009.04 1008.25 1007.41 1006.43 1005.25 1004.32 1003.58 1002.75 1001.36 1000.04 998.67 997.50 997.49 997.46 997.72 998.13 998.52 999.04 999.55
1023.68 1023.46 1023.25 1023.05 1022.69 1022.22 1021.73 1021.27 1020.84 1020.34 1019.84 1019.43 1018.83 1018.20 1017.65 1017.04 1016.40 1015.61 1014.91 1014.01 1013.07 1012.08 1011.18 1010.31 1009.39 1008.50 1007.54 1006.73 1005.93 1004.70 1003.16 1002.24 1001.34 1000.13 999.08 997.95 997.57 997.72 997.99 998.51 999.10 999.53 1000.07
1024.12 1023.92 1023.82 1023.62 1023.28 1022.83 1022.35 1021.90 1021.48 1021.00 1020.51 1020.05 1019.53 1018.99 1018.41 1017.70 1017.08 1016.23 1015.40 1014.42 1013.46 1012.61 1011.76 1010.79 1009.85 1008.96 1007.89 1007.00 1006.17 1005.24 1004.02 1002.60 1001.75 1000.66 999.70 998.39 998.02 998.05 998.30 998.78 999.42 999.58 1000.22
Wind_Speed
6 5 5 4 5 4 5 5 6 6 6 7 7 7 7 8 9 9 10 11 11 11 10 10 11 10 8 8 7 8 8 9 12 12 10 9 12 12 12 10 10 11 9
5 4 4 4 4 4 5 6 6 6 6 6 7 8 9 10 10 11 13 13 15 15 15 14 14 10 12 11 9 11 11 11 11 17 11 10 12 12 12 11 10 9 10
4 4 4 5 5 5 6 6 6 7 7 8 9 10 11 13 13 14 15 16 16 16 15 15 15 15 13 12 12 12 11 10 12 13 13 11 10 10 11 12 12 12 10
5 6 6 6 6 6 6 6 7 8 9 10 11 12 13 14 15 15 14 15 15 15 15 14 14 14 14 13 12 13 12 13 14 14 14 13 12 11 11 11 11 11 11
7 7 6 6 6 6 7 7 8 9 10 12 13 14 15 13 11 13 14 14 14 14 14 13 13 14 18 17 11 13 13 11 12 13 13 13 13 12 12 11 12 11 11
7 7 6 6 7 8 8 10 10 11 13 13 14 14 14 10 11 14 13 12 13 13 13 13 13 16 14 13 15 17 16 13 14 12 12 14 15 13 12 11 11 12 13
7 7 7 8 9 10 11 12 12 13 13 14 14 13 13 12 8 13 15 11 11 12 13 13 13 11 13 13 13 16 16 17 17 15 14 13 12 12 11 11 10 11 13
7 7 8 10 12 12 12 12 12 12 12 12 13 12 12 10 10 12 15 12 11 12 13 13 14 15 14 12 13 13 14 13 14 10 12 11 11 11 9 8 7 6 8
8 10 10 11 12 12 12 12 12 11 12 11 11 12 12 11 11 10 13 11 10 13 12 12 12 13 15 13 13 14 14 14 12 14 13 13 14 13 9 3 4 4 5
10 11 11 11 11 12 12 12 10 10 11 10 11 11 12 12 8 9 12 8 11 9 12 13 16 14 15 16 13 12 12 12 12 12 9 8 11 13 12 10 7 7 7
11 11 10 10 11 10 10 10 10 10 10 11 11 11 11 9 10 10 11 10 8 9 10 11 12 15 15 17 17 14 13 12 13 10 9 8 9 10 9 10 11 10 9
10 10 10 10 9 8 10 9 10 10 10 10 10 9 8 9 9 9 12 14 15 11 12 10 12 18 18 20 17 19 17 15 9 9 9 9 9 9 10 11 10 9 11
10 10 10 10 9 9 9 10 9 9 8 9 8 9 9 8 8 11 12 15 17 12 10 14 23 23 22 18 17 15 14 9 8 8 8 9 8 9 10 12 12 12 12
11 11 10 10 10 9 8 7 7 8 8 8 8 8 9 8 8 9 11 12 14 12 14 11 15 19 21 17 13 10 8 7 7 8 8 8 7 8 9 9 8 7 9
10 9 9 8 9 9 8 7 8 8 8 9 9 9 9 9 10 16 16 12 11 13 16 9 8 7 8 7 7 7 7 7 7 7 7 8 8 8 9 8 8 8 8
8 7 7 7 7 7 7 7 6 8 12 11 11 9 8 10 17 20 22 21 20 20 6 9 9 9 9 9 8 8 7 9 8 7 8 8 8 8 9 8 8 8 8
7 8 7 7 6 7 7 7 8 7 7 6 9 11 11 15 19 20 20 21 16 13 6 8 10 10 10 10 9 8 9 7 7 8 8 8 8 8 8 7 8 8 8
7 10 5 5 6 7 8 8 8 9 9 10 9 11 14 17 19 17 18 16 9 8 8 9 10 10 11 11 12 10 9 8 7 7 8 8 8 7 7 7 6 7 9
6 5 7 6 6 8 7 8 8 9 9 9 10 12 15 19 14 13 13 8 9 9 9 10 10 10 11 12 12 12 13 8 7 6 7 7 6 6 6 7 5 5 4
7 10 8 6 7 8 8 8 9 9 9 9 9 10 12 12 10 11 10 10 10 9 9 10 11 10 11 12 13 11 12 11 9 4 7 6 6 6 6 7 4 2 1
6 7 6 6 7 7 8 9 9 8 10 9 10 10 15 9 9 9 9 10 10 10 10 10 11 11 11 12 13 12 13 12 10 10 5 2 5 4 6 6 6 3 4
6 7 7 8 7 8 8 8 9 10 10 11 10 11 15 9 9 9 10 11 11 11 8 10 10 10 10 12 14 13 13 13 11 10 10 5 5 7 4 4 5 5 5
8 8 8 8 8 9 9 9 10 10 11 11 11 12 11 10 10 10 11 11 11 11 10 9 10 10 10 11 11 11 12 13 12 10 9 4 4 5 4 5 5 5 6
8 8 9 9 8 8 9 9 10 12 12 11 12 11 12 11 11 12 12 12 12 12 11 11 11 16 13 13 12 12 11 12 11 11 13 2 2 4 7 6 6 8 7
8 8 8 8 8 9 9 10 10 11 11 11 12 12 12 12 12 12 12 12 12 12 14 13 12 17 18 19 19 24 23 21 15 14 8 1 2 5 6 7 8 9 9
7 8 7 7 8 9 9 10 10 11 11 11 12 12 12 13 13 13 13 14 13 13 16 12 16 23 23 17 22 24 23 23 19 20 12 7 3 4 5 8 10 8 11
Wind_Direction
111 99 102 101 92 80 62 31 13 5 2 3 357 351 348 341 338 329 322 311 311 306 299 298 299 297 291 287 279 272 265 257 264 266 261 263 270 275 269 258 256 258 247
120 104 99 82 69 59 51 29 16 16 7 356 342 332 327 322 319 315 311 311 306 299 297 293 292 291 287 280 275 275 276 276 269 273 276 274 257 268 273 276 269 261 261
113 115 85 55 34 30 41 33 18 1 349 337 328 323 320 314 312 310 307 304 299 294 293 293 293 290 283 281 280 278 273 264 265 270 274 272 271 274 266 264 269 267 259
94 77 55 42 36 34 34 19 355 340 327 325 319 312 307 307 306 305 305 304 299 297 296 293 292 288 285 286 280 278 275 273 269 267 267 268 262 261 264 265 260 256 259
78 68 52 38 20 5 1 347 334 321 317 312 308 306 305 306 303 326 312 302 301 302 300 295 289 291 292 286 289 286 285 278 276 275 269 266 263 261 257 261 261 262 257
67 57 29 2 345 342 340 329 319 313 310 310 306 308 309 306 342 316 309 304 302 298 299 302 300 295 284 279 274 274 272 274 271 270 271 272 278 276 271 268 267 260 258
40 22 359 339 328 329 326 316 315 313 312 312 313 314 312 311 331 310 311 301 298 294 296 298 301 298 304 299 300 289 276 268 262 270 270 263 269 270 282 279 270 266 267
12 345 336 332 325 321 315 315 319 318 316 319 316 315 311 310 316 302 307 297 294 293 294 293 295 296 295 298 293 290 288 286 277 273 263 260 271 274 273 276 281 288 296
353 339 334 331 316 316 318 325 322 319 322 318 304 303 309 307 301 312 310 310 310 305 301 301 294 292 291 287 287 285 281 280 283 277 265 267 270 264 261 276 249 258 266
345 337 329 317 317 324 326 319 318 313 304 307 306 301 299 301 329 328 322 318 306 308 301 295 288 279 282 280 282 282 276 277 283 285 278 265 264 265 238 233 246 246 254
334 322 320 328 329 319 317 317 316 314 310 302 308 307 308 322 325 340 317 317 305 299 295 295 296 295 283 277 273 282 274 282 280 277 274 271 263 269 267 247 231 231 236
333 332 338 333 321 320 323 316 321 316 308 311 314 314 331 329 329 316 303 291 297 302 293 291 290 289 286 281 281 279 274 271 266 263 263 260 254 256 259 257 261 248 247
338 335 328 327 328 322 323 323 318 318 311 315 321 325 319 326 320 306 302 313 307 302 291 289 292 289 285 281 270 271 271 265 256 257 260 259 252 255 257 258 255 254 248
335 337 335 334 331 329 326 320 319 313 317 319 319 314 320 322 323 335 328 322 313 304 300 293 285 278 274 270 279 274 267 258 256 258 259 258 259 254 251 251 247 238 238
334 335 330 329 335 331 322 317 311 310 319 313 315 320 325 322 327 321 316 311 309 301 305 291 291 293 290 285 274 266 261 252 249 250 251 254 252 251 250 245 235 234 234
335 340 337 331 335 333 334 324 308 296 308 308 316 326 319 310 320 320 314 310 309 304 295 300 309 310 305 301 292 285 265 255 246 242 240 242 246 244 247 235 227 224 227
333 337 342 341 336 340 338 341 336 336 325 328 343 341 341 327 328 322 318 317 306 312 321 324 324 323 319 316 302 285 278 258 248 241 239 239 245 249 233 236 228 217 220
325 324 315 321 343 345 352 349 342 346 351 354 357 355 344 339 333 327 327 322 340 351 341 330 327 326 325 323 320 312 285 270 239 243 244 240 243 249 243 236 227 230 214
343 348 339 345 351 354 358 354 356 352 355 356 354 355 352 347 336 335 336 350 336 340 333 328 329 327 325 323 320 328 326 295 264 237 242 244 244 241 239 246 253 271 189
353 3 358 357 2 4 8 0 3 357 359 359 0 355 347 343 355 351 349 344 339 337 328 326 326 326 325 325 326 330 330 325 315 257 230 224 228 227 231 207 194 261 3
358 3 353 6 11 4 1 4 7 2 10 5 0 355 342 341 345 341 338 341 339 334 328 325 322 323 326 326 330 339 336 328 323 319 301 239 207 202 200 179 156 147 96
10 8 8 11 8 7 3 4 13 4 14 3 359 358 350 357 352 345 342 341 338 335 326 318 317 322 327 329 329 337 335 333 326 324 323 355 358 141 135 137 138 126 115
18 14 15 15 9 5 6 9 9 9 7 3 2 0 358 355 351 347 341 339 335 335 333 326 323 328 334 330 327 340 333 335 319 306 301 356 40 87 132 118 120 127 121
25 20 16 16 13 7 13 9 10 8 4 3 5 2 356 355 349 347 345 340 338 338 339 336 336 340 337 338 337 339 335 331 321 320 315 32 94 133 113 110 108 112 107
25 21 18 15 9 8 8 11 10 9 8 7 3 2 356 357 351 352 346 342 340 343 344 343 343 343 346 345 345 341 338 343 345 340 331 5 95 85 109 115 120 111 115
24 20 22 13 11 9 11 8 9 8 4 2 2 0 357 355 352 349 349 348 345 345 345 345 346 350 349 351 347 341 342 343 347 346 339 350 107 118 115 113 120 125 134